Flag for India

Past Weather in Karaikudi, Tamil Nadu, India — Yesterday and Last 2 Weeks

Now
84 °F

Passing clouds.


Feels Like: 92 °F
Forecast: 92 / 79 °F
Wind: 5 mph from West

Location: Tiruchchirapalli
Current Time: Sep 25, 2020 at 12:28:20 am
Latest Report: Sep 24, 2020 at 11:30 pm
Visibility: 4 mi
Pressure29.83 "Hg
Humidity: 74%
Dew Point: 75 °F
Location of KaraikudiLocation

Past Weather in Karaikudi — Graph

°F

Karaikudi Temperature Yesterday

Maximum temperature yesterday: 99 °F (at 3:00 pm)
Minimum temperature yesterday: 79 °F (at 5:30 am)
Average temperature yesterday: 89 °F

High & Low Weather Summary for the Past Weeks

 TemperatureHumidityPressure
High99 °F (Sep 23, 2:00 pm)94% (Sep 9, 10:30 pm)29.83 "Hg (Sep 9, 10:30 pm)
Low77 °F (Sep 9, 10:30 pm)39% (Sep 23, 2:00 pm)29.59 "Hg (Sep 19, 3:00 pm)
Average86 °F66%29.72 "Hg
* Reported Sep 9 10:30 pm — Sep 24 11:00 pm, Karaikudi. Weather by CustomWeather, © 2020

Note: Actual official high and low records may vary slightly from our data, if they occured in-between our weather recording intervals... More about our weather records

Karaikudi Weather History for the Previous 24 Hours

Scroll right to see more
 ConditionsComfort  
Time TempWeatherWind HumidityBarometerVisibility
11:00 pm
Thu, Sep 24
84 °FPassing clouds.3 mph74%29.83 "Hg4 mi
10:30 pm84 °FPassing clouds.3 mph74%29.83 "Hg4 mi
10:00 pm86 °FPassing clouds.5 mph70%29.83 "Hg4 mi
9:30 pm86 °FPassing clouds.6 mph70%29.83 "Hg4 mi
9:00 pm86 °FPassing clouds.7 mph70%29.80 "Hg4 mi
8:30 pm88 °FPassing clouds.7 mph62%29.80 "Hg4 mi
8:00 pm90 °FPassing clouds.9 mph59%29.77 "Hg4 mi
7:30 pm91 °FPassing clouds.9 mph56%29.74 "Hg4 mi
7:00 pm91 °FPassing clouds.7 mph56%29.74 "Hg4 mi
6:30 pm93 °FScattered clouds.5 mph53%29.71 "Hg4 mi
6:00 pm93 °FBroken clouds.5 mph53%29.71 "Hg4 mi
5:30 pm95 °FBroken clouds.6 mph50%29.71 "Hg5 mi
5:00 pm95 °FScattered clouds.5 mph47%29.68 "Hg5 mi
4:30 pm97 °FScattered clouds.7 mph44%29.68 "Hg5 mi
4:00 pm97 °FScattered clouds.6 mph44%29.68 "Hg5 mi
3:30 pm97 °FScattered clouds.7 mph44%29.71 "Hg5 mi
3:00 pm99 °FScattered clouds.7 mph42%29.71 "Hg5 mi
2:30 pm97 °FScattered clouds.9 mph44%29.71 "Hg5 mi
2:00 pm97 °FScattered clouds.12 mph47%29.74 "Hg5 mi
1:30 pm97 °FScattered clouds.9 mph47%29.74 "Hg5 mi
1:00 pm95 °FScattered clouds.12 mph50%29.77 "Hg5 mi
12:30 pm95 °FPassing clouds.9 mph50%29.77 "Hg5 mi
12:00 pm93 °FPassing clouds.9 mph53%29.80 "Hg5 mi
11:30 am91 °FPassing clouds.9 mph56%29.80 "Hg5 mi
11:00 am90 °FPassing clouds.12 mph59%29.80 "Hg5 mi
10:30 am88 °FPassing clouds.14 mph62%29.83 "Hg4 mi
10:00 am86 °FPassing clouds.12 mph66%29.83 "Hg4 mi
9:30 am84 °FPassing clouds.12 mph70%29.83 "Hg4 mi
9:00 am82 °FPassing clouds.12 mph74%29.83 "Hg4 mi
8:30 am82 °FPassing clouds.14 mph70%29.83 "Hg4 mi
8:00 am82 °FPassing clouds.12 mph70%29.83 "Hg4 mi
7:30 am81 °FPassing clouds.9 mph74%29.80 "Hg4 mi
6:30 am79 °FPassing clouds.9 mph74%29.80 "Hg4 mi
5:30 am79 °FPassing clouds.9 mph79%29.77 "Hg4 mi
4:30 am81 °FPassing clouds.9 mph74%29.77 "Hg4 mi
3:30 am81 °FPassing clouds.7 mph74%29.77 "Hg4 mi
2:30 am81 °FPassing clouds.6 mph74%29.77 "Hg4 mi
1:30 am82 °FPassing clouds.5 mph74%29.77 "Hg4 mi
12:30 am84 °FPassing clouds.6 mph66%29.77 "Hg4 mi
Weather by CustomWeather, © 2020

See weather overview